Overview Statistics Trail Chart Weather Telemetry Raw packets
 

This is the latest recevied weather packets stored in our database for station/object WW5JC. If no packets are shown the sender has not sent any weather packets the latest 10 day(s).

<< 89 90 91 92 93 94 95 >>
Time Temp. Humidity Pressure Rain* Wind** Luminosity Snow
1787969334 28.89° C 51% 1017.5 hPa 0 mm - 0 W/m² -
1787969042 28.89° C 51% 1017.5 hPa 0 mm - 0 W/m² -
1787968729 28.89° C 52% 1017.3 hPa 0 mm - 0 W/m² -
1787968429 28.33° C 52% 1017.2 hPa 0 mm - 0 W/m² -
1787968124 28.33° C 53% 1017.1 hPa 0 mm - 0 W/m² -
1787967823 28.89° C 54% 1017 hPa 0 mm - 0 W/m² -
1787967521 28.89° C 52% 1017 hPa 0 mm - 0 W/m² -
1787967217 29.44° C 52% 1017.2 hPa 0 mm - 0 W/m² -
1787966912 30° C 49% 1017 hPa 0 mm - 0 W/m² -
1787966607 30° C 50% 1016.7 hPa 0 mm - 0 W/m² -
1787966301 31.11° C 49% 1016.7 hPa 0 mm - 0 W/m² -
1787965997 31.67° C 46% 1016.6 hPa 0 mm - 0 W/m² -
1787965691 31.67° C 45% 1016.6 hPa 0 mm - 0 W/m² -
1787965391 31.67° C 45% 1016.6 hPa 0 mm - 1 W/m² -
1787965090 32.22° C 44% 1016.8 hPa 0 mm - 2 W/m² -
1787964779 32.78° C 43% 1016.8 hPa 0 mm - 3 W/m² -
1787964474 32.78° C 42% 1016.5 hPa 0 mm - 5 W/m² -
1787964170 32.78° C 43% 1016.6 hPa 0 mm - 8 W/m² -
1787963868 32.78° C 43% 1016.7 hPa 0 mm - 11 W/m² -
1787963564 33.89° C 41% 1016.5 hPa 0 mm - 14 W/m² -
1787963259 33.89° C 41% 1016.4 hPa 0 mm - 17 W/m² -
1787962959 34.44° C 40% 1016.7 hPa 0 mm - 20 W/m² -
1787962657 34.44° C 39% 1016.4 hPa 0 mm - 25 W/m² -
1787962352 35° C 37% 1016.4 hPa 0 mm - 28 W/m² -
1787962046 35° C 37% 1016.4 hPa 0 mm - 39 W/m² -

* Rain latest hour (hover to see other rain measurements)
** Current wind speed in m/s (hover to see current wind gust speed)